Theta_e
337 337 336 334 333 331 326 326 326 321 320 315 314 314 312 311 308 309 309 309 307 307 308 308 308 308 308 309 309 310 310 311 311 311 311 310 309 306 306 305 304 304 304
336 336 336 335 332 328 327 325 324 321 320 315 315 314 313 312 308 306 308 309 309 308 308 308 308 308 308 309 309 310 311 311 311 311 310 309 307 306 301 302 302 303 304
334 335 336 335 333 329 328 325 322 321 320 317 316 315 314 313 309 307 306 306 309 309 309 308 308 308 309 310 309 311 311 311 311 309 308 306 305 303 302 304 304 303 303
334 334 335 335 333 331 329 326 322 322 319 318 316 315 314 313 310 309 307 307 306 307 308 307 309 309 309 310 311 307 308 310 308 306 305 303 303 304 304 304 303 303 303
333 332 333 335 334 331 330 326 324 322 319 318 316 315 314 313 311 310 308 307 307 307 308 309 309 309 310 311 304 306 305 305 304 302 302 302 302 303 303 303 304 304 303
333 333 333 333 334 332 330 327 325 322 320 318 318 314 314 313 311 309 309 309 308 308 309 310 310 310 311 307 304 303 303 300 303 303 302 302 303 303 304 303 303 302 302
331 332 334 334 333 332 330 328 325 323 321 317 317 314 313 311 311 310 310 310 310 310 310 310 310 311 311 304 303 303 302 300 301 300 302 303 302 302 301 302 301 302 302
330 331 331 332 331 331 330 327 326 323 320 317 315 314 312 311 312 311 311 311 310 310 310 310 310 311 309 304 302 303 301 301 302 301 301 300 301 301 301 301 301 302 302
326 330 330 330 330 330 330 328 326 324 321 318 316 314 314 313 312 312 312 310 310 311 311 310 311 312 305 304 302 303 303 304 302 300 299 300 301 300 301 301 303 303 303
318 321 326 328 328 329 329 329 326 324 321 318 317 317 315 314 312 312 310 311 311 311 310 311 311 308 305 303 302 303 303 304 301 301 301 302 301 301 300 301 301 302 301
313 317 318 321 324 326 326 326 326 324 323 319 317 316 315 314 312 312 311 309 310 310 311 312 308 306 305 298 302 303 301 302 301 301 301 301 302 300 299 300 300 300 301
310 312 318 319 321 322 325 324 324 324 322 320 318 315 315 314 310 308 311 312 312 312 312 310 307 302 298 301 302 301 301 302 302 301 301 300 299 299 298 299 298 299 299
313 311 314 319 320 320 323 323 324 323 320 318 317 316 314 311 311 307 308 311 311 312 311 308 300 301 302 301 301 300 300 303 302 301 300 300 300 299 297 297 298 300 300
309 312 310 315 318 320 322 323 323 322 319 317 316 316 312 311 308 309 313 312 311 310 307 299 301 301 301 301 301 301 301 303 302 301 300 300 299 299 300 300 300 300 299
307 311 311 310 317 318 320 322 323 322 320 318 316 312 311 312 308 312 312 312 310 303 299 301 302 303 303 303 303 303 303 303 302 302 301 300 299 299 299 299 297 296 295
307 308 310 309 313 317 317 321 321 320 319 317 313 312 310 309 312 312 312 307 300 300 301 303 303 303 302 302 301 301 300 302 302 302 301 299 299 299 297 296 294 293 294
305 307 308 310 310 317 317 319 320 319 318 315 313 309 311 314 312 312 304 301 301 301 303 303 303 301 301 300 300 299 300 300 298 298 298 298 297 296 293 293 293 293 293
304 305 307 311 311 313 317 319 319 319 316 315 316 312 311 311 310 303 303 302 302 302 302 302 301 300 300 299 298 298 297 297 298 298 297 296 294 293 293 293 293 293 295
305 306 307 310 311 314 318 318 319 317 316 316 310 311 311 306 303 303 302 302 303 303 301 300 299 299 298 297 297 297 297 297 296 295 294 293 293 293 293 292 292 293 293
306 307 307 310 311 312 316 318 318 316 314 308 311 310 307 303 304 303 302 302 301 301 300 298 298 297 297 296 296 296 296 296 295 294 293 292 292 292 291 291 292 294 295
306 306 307 311 311 315 316 317 316 312 308 310 310 308 305 304 304 302 302 301 300 299 298 297 297 296 296 296 296 296 295 294 293 292 291 291 292 292 291 291 292 293 294
307 311 310 312 311 316 316 314 310 309 310 310 307 305 304 305 302 302 301 300 298 295 295 295 296 296 296 295 295 294 294 292 291 291 291 292 292 292 291 291 292 293 294
308 308 312 312 312 316 313 309 309 309 310 307 306 304 306 304 302 301 299 297 295 294 293 294 295 296 295 295 294 292 291 291 291 292 293 293 292 292 292 292 292 294 294
309 308 312 313 313 315 310 309 309 310 307 307 305 306 305 302 301 300 298 295 294 293 293 293 295 295 295 293 292 292 293 292 291 294 293 293 292 293 293 293 294 294 294
308 311 314 316 314 314 310 308 310 311 308 306 306 304 302 301 300 297 295 293 293 292 293 296 296 295 295 296 295 294 293 291 295 294 293 293 294 294 294 294 294 295 295
308 310 314 315 315 310 310 309 312 309 306 306 304 302 301 299 297 294 293 293 292 294 296 296 296 296 296 296 294 292 292 295 295 294 293 294 294 293 294 294 294 295 295
Wind_Speed
10 10 9 9 13 17 19 18 19 19 19 17 14 13 11 10 12 13 12 11 11 10 8 5 6 7 8 10 14 15 16 16 19 20 17 16 20 22 23 23 23 20 14
10 10 8 13 15 18 19 19 21 22 21 19 17 15 14 13 12 13 14 15 15 13 10 10 8 9 10 15 16 19 18 19 19 21 19 19 19 21 26 25 17 10 13
12 12 11 12 16 18 20 21 21 23 24 22 22 18 17 16 15 13 12 15 17 16 11 11 9 10 14 15 19 20 17 17 17 17 16 16 17 17 17 12 12 12 13
9 12 14 14 15 16 20 22 22 24 25 23 22 20 19 18 16 16 15 14 15 15 13 11 10 14 16 18 19 16 15 11 12 12 16 16 15 14 12 12 14 14 15
11 12 14 16 18 18 19 22 23 25 25 23 24 21 21 21 19 18 19 15 12 11 11 12 14 14 16 18 14 12 11 9 11 12 13 15 15 14 13 13 14 14 14
11 12 15 15 19 20 20 22 24 25 26 25 24 22 21 21 20 19 17 16 14 13 13 12 11 15 18 14 12 10 9 9 6 11 14 15 14 13 12 14 14 17 20
12 11 15 16 17 22 20 23 24 25 27 28 24 23 21 23 19 17 19 16 16 14 13 13 14 17 14 11 10 9 12 9 12 14 13 14 15 15 16 16 16 18 18
11 9 13 17 18 18 22 27 23 27 28 29 23 25 24 23 19 20 19 17 21 19 16 16 17 15 12 10 9 9 12 12 13 13 16 18 16 15 17 17 18 18 17
15 11 7 7 10 15 19 20 27 27 30 32 30 27 24 22 17 20 20 19 19 18 17 16 15 15 11 9 11 9 9 8 14 18 20 16 14 15 15 17 14 14 16
18 15 9 10 13 17 18 19 25 28 32 33 32 28 23 21 22 17 17 17 19 19 17 14 13 10 10 11 10 11 9 9 15 17 14 12 12 12 13 12 14 14 15
16 17 16 13 13 15 17 18 21 25 29 34 33 28 23 19 14 15 12 16 19 17 14 14 9 9 12 10 11 13 12 12 13 13 13 12 11 11 13 14 14 15 16
18 18 18 17 14 16 19 19 19 22 27 32 34 24 21 18 17 14 17 16 18 16 13 10 9 11 6 5 9 11 13 11 10 11 12 13 13 13 14 13 15 15 16
18 20 20 19 17 16 17 17 16 20 23 29 27 22 20 14 15 17 20 17 15 13 11 9 8 2 4 6 6 10 12 10 10 12 13 13 14 14 15 16 15 15 16
21 20 22 21 21 16 13 14 11 14 21 25 24 23 16 15 14 21 18 14 14 10 8 4 2 3 5 7 10 12 12 11 11 13 14 15 16 16 17 16 16 18 20
21 21 22 23 23 23 13 10 14 17 14 23 23 16 11 16 21 16 13 13 10 7 2 2 4 6 8 9 10 10 12 12 12 14 16 18 19 19 16 16 19 21 20
20 23 22 23 22 23 17 11 14 12 13 20 17 11 15 17 14 11 11 9 5 2 1 3 6 7 8 9 11 13 14 12 11 13 16 18 17 16 17 20 18 19 20
23 23 24 23 22 21 19 17 18 16 18 19 19 16 15 12 13 11 8 5 3 2 3 5 7 7 8 10 12 10 8 8 14 13 15 13 15 18 19 18 19 18 18
29 26 24 23 23 21 21 17 16 21 25 23 19 18 14 12 11 8 4 3 4 6 7 5 6 7 8 9 8 8 10 11 11 12 14 16 16 17 18 18 18 17 15
24 25 22 22 22 21 19 15 14 21 26 23 22 17 14 13 10 4 3 5 5 5 4 5 6 6 7 7 9 9 11 12 17 17 16 16 17 18 18 16 15 16 14
23 20 22 21 20 22 18 13 11 23 26 22 22 18 18 14 8 4 5 3 2 3 4 5 5 6 7 8 9 11 12 14 15 16 17 18 17 17 16 15 13 11 10
20 19 23 18 19 17 14 12 13 27 27 24 23 18 15 11 7 4 3 3 2 4 3 4 5 7 8 9 10 12 14 15 17 17 18 17 16 15 14 13 11 10 11
18 18 18 16 17 13 13 11 27 24 22 22 19 18 14 10 6 5 5 2 4 5 4 5 6 7 8 12 15 16 17 17 19 20 20 18 17 15 11 9 8 9 7
19 16 16 14 12 9 11 30 28 24 21 20 18 17 13 9 7 7 4 5 5 4 6 7 6 7 12 17 18 20 21 22 23 23 20 19 16 11 6 4 5 5 5
16 17 14 16 8 5 33 28 25 21 20 19 17 14 12 10 8 5 5 5 4 6 6 6 9 12 15 17 18 19 21 22 22 20 18 15 7 6 5 5 4 3 4
18 15 15 14 10 16 31 31 25 17 18 18 17 14 12 8 6 5 4 4 4 5 6 8 11 14 16 18 19 19 19 19 18 17 12 5 6 8 7 5 5 6 6
15 18 15 16 13 39 34 33 22 19 19 17 15 12 9 7 5 3 2 3 3 4 6 10 12 15 17 19 18 17 16 16 16 10 5 6 6 7 6 4 6 4 4
Wind_Direction
290 290 275 262 228 224 227 231 235 235 235 236 237 241 236 238 237 228 226 215 210 207 217 233 253 273 291 297 302 300 298 291 289 302 299 301 307 316 307 306 310 310 305
289 282 276 257 236 231 229 229 228 234 233 238 233 239 242 240 240 231 231 226 220 220 235 245 256 274 290 298 299 303 299 298 293 300 306 311 311 309 315 313 314 311 304
286 283 278 258 243 239 236 237 234 232 229 236 234 237 238 239 235 232 235 235 230 227 235 243 255 279 292 297 301 306 303 299 300 309 317 315 314 319 322 326 326 317 320
269 275 273 264 261 256 244 239 236 233 233 239 239 241 239 235 233 234 237 240 234 228 231 241 261 282 292 299 306 310 310 308 311 313 313 313 318 323 330 327 324 318 319
273 269 272 265 263 260 254 243 240 238 236 241 240 236 236 236 233 239 239 242 234 223 232 255 274 281 289 299 305 307 315 317 315 318 322 320 321 325 325 324 324 327 328
293 277 276 272 261 261 261 248 242 240 239 238 241 231 232 234 241 237 236 243 238 239 251 267 278 283 288 294 308 317 315 320 326 332 329 321 324 321 321 325 330 331 329
288 282 286 286 274 268 263 253 246 240 234 233 236 227 222 226 220 222 234 247 252 255 261 268 276 284 288 291 315 316 323 311 323 334 328 323 320 320 322 320 323 332 329
350 294 276 292 291 281 272 256 251 244 238 235 226 223 230 227 216 226 241 253 256 258 264 264 272 281 283 294 314 312 316 316 325 329 323 321 316 317 320 319 317 314 323
9 358 338 308 301 290 292 277 255 247 238 228 223 232 226 228 228 243 233 242 255 262 265 263 275 281 281 298 308 288 302 306 325 329 329 321 316 321 314 314 309 306 311
5 5 337 313 297 293 295 291 277 258 244 231 227 230 227 229 219 225 225 246 256 258 261 266 282 273 285 300 278 282 299 300 320 327 327 328 333 337 335 315 306 311 308
353 347 344 322 302 305 301 303 290 276 256 237 230 226 224 210 212 227 241 245 251 257 267 281 274 283 295 287 269 280 291 295 319 329 333 338 330 324 326 322 321 317 309
349 343 340 340 320 303 296 296 302 296 266 242 224 214 209 190 215 211 230 247 255 258 273 273 285 297 280 267 277 292 287 290 306 325 337 340 338 327 316 315 315 313 314
342 343 334 330 325 314 295 300 297 295 268 237 214 201 189 211 216 222 229 250 255 266 269 284 300 262 280 289 291 301 286 277 293 316 327 332 329 323 324 319 321 310 310
332 334 332 326 325 316 294 294 290 287 257 230 194 201 190 198 218 227 245 245 248 252 277 293 284 288 296 282 300 296 283 268 281 302 315 318 322 320 314 315 313 310 307
326 322 326 326 324 324 304 309 299 281 267 211 200 183 188 214 212 246 251 248 248 255 249 304 300 289 295 298 296 288 285 280 283 296 307 312 313 311 308 307 307 306 303
318 317 315 321 319 323 314 301 297 266 229 186 183 178 194 197 227 239 223 235 240 222 276 287 303 290 296 309 303 301 297 292 289 293 303 307 307 304 306 308 308 304 302
311 305 305 306 315 315 318 305 286 249 207 181 178 175 201 223 229 219 216 211 219 259 278 302 291 286 304 311 310 307 308 305 308 307 303 305 305 304 309 307 308 306 304
298 291 291 295 306 307 318 288 284 246 181 181 187 187 205 220 195 201 205 244 253 280 298 289 284 299 309 309 308 311 315 315 313 311 309 306 305 305 307 308 308 308 307
289 280 284 289 302 304 303 299 288 220 196 183 182 191 198 182 181 190 244 243 274 288 281 282 297 305 306 311 310 317 319 313 314 313 311 308 306 305 304 304 306 309 317
279 274 279 284 297 303 299 289 266 215 174 156 183 190 186 177 171 203 237 250 288 277 286 305 307 307 311 308 314 320 316 316 316 315 311 309 307 303 302 302 301 296 301
269 276 275 273 294 303 305 271 255 168 149 163 181 188 175 169 184 193 203 260 270 289 313 321 315 311 309 317 323 318 317 319 318 315 315 313 309 306 301 298 295 288 297
257 271 264 264 292 297 300 175 152 154 163 171 183 181 179 196 202 207 227 242 291 313 322 322 314 306 315 321 319 319 320 321 321 320 318 315 312 307 300 299 292 287 301
243 253 257 273 300 289 189 153 153 162 175 180 190 187 194 202 204 217 222 288 310 327 318 309 316 323 326 325 323 323 322 322 322 322 324 328 328 326 319 306 306 316 325
245 248 236 251 269 267 160 157 167 178 182 191 191 194 205 200 209 225 270 304 327 322 312 325 336 332 330 328 325 324 322 323 324 329 332 335 354 11 7 7 2 356 20
243 230 220 226 226 181 159 166 178 183 190 192 189 193 195 203 220 252 299 323 318 310 339 349 341 338 336 331 327 325 324 326 332 334 341 29 30 27 36 48 75 71 38
251 239 223 214 195 163 165 175 188 187 184 184 187 189 192 209 243 284 314 297 301 349 358 342 339 338 334 334 333 333 335 340 344 350 68 66 63 41 38 61 45 24 46